STARLINK-2725, 48681

Orbit data source: Space-Track

STARLINK-2725, 48681 is a payload satellite owned by SpaceX/Seattle (US) in LEO that was launched on Wed, 26 May 2021 UTC via an FALCON 9 launch vehicle from the Air Force Eastern Test Range (AFETR). Payload-class satellites include a variety of spacecraft equipped with specific instruments for various scientific and technological missions. These include communications satellites like Starlink; space stations such as the ISS; scientific satellites like the Hubble; Earth observation satellites from companies like Planet Labs, Umbra, and HawkEye 360; GPS; miniature CubeSats for education and research; and military/defense satellites.

Loading next visibility...
Identifier
48681, 2021-044AV
Orbit
LEO
Country
Flag of USUS
Related business
Manufacturer
SpaceX/Seattle
Mission
Operational Commercial Communications
Bus & Motor
STARLINK, Unknown motor
Mass
260 kg wet, ~248 kg dry
Launch date (UTC)
2021-05-26 (5 years ago)
Launch vehicle
FALCON 9
Launch site
Air Force Eastern Test Range (AFETR)
Object type
Payload
Rocket body
Debris
Shape & HBR
Box + 1 Pan, 10.1 m
Radar Cross Section
13.562 m², Large (>1 m²)

Expand to show TLE details & history
Last TLE update: 18 hours ago

TLE from 18 hours ago
0 STARLINK-2725
1 48681U 21044AV  25349.72868566 -.00000062  00000-0  14714-4 0  9999
2 48681  53.0545  98.7727 0001605  76.7807 283.3361 15.06398931251603
Epoch: 2025-12-15T17:29Z
TLE epoch observation values (Epoch: 2025-12-15T17:29:18.441Z)
Latitude
0.00001°
Longitude
111.82279°
Altitude
547.838 km
Speed
7.589 km/s
True Right ascension
06h 35m 05s
True Declination
0° 00' 00"
Sunlit
Object was in full shadow at epoch
Visualization orbit readout
Latitude
Unknown
Longitude
Unknown
Altitude
Unknown
Speed
Unknown
Apparent Right ascension
Unknown
Apparent Declination
Unknown
Sunlit
N/A
Visualization observer readout
Local Sidereal Time
10:39:37
Azimuth
Unknown
Elevation
Unknown
Doppler factor
Unknown
Orbital elements
Apogee altitude
548.597 km
Perigee altitude
546.374 km
Semi-major axis
6,925.623 km
Eccentricity
0.00016
Inclination
53.0545°
RAAN
98.7727°
Arg. of periapsis
76.7807°
True anomaly
283.3182°
Mean anomaly
283.3361°
Eccentric anomaly
283.32715°
Mean motion
3.76578 °/min
Orbital period
95.6 mins
BSTAR
0.000014714
Loading maneuver chart data...
Computing Atmospheric mass density...
Loading historical data...
Loading historical data...
Loading historical data...
Loading historical data...
Loading historical data...
Loading historical data...
Loading historical data...

Documentation

Showing up to 5 results
|